Flag for U.S.A. Weather past 2 weeks in Salem, Oregon, U.S.A.

Now
64 °F

Sunny.


Feels Like: 64 °F
Forecast: 59 / 90 °F
Wind: 6 mph from North

Location: McNary Field

Current Time: Jul 31, 2014 at 7:16:40 AM

Latest Report: Jul 31, 2014 at 6:56 AM


Visibility: 10 mi

Pressure: 30.03 "Hg

Humidity: 73%

Dew point: 55 °F

Location of SalemLocation

Historic Weather in Salem — Graph

°F

Salem temperature yesterday

Maximum temperature yesterday: 92 °F (at 3:56 PM)
Minimum temperature yesterday: 57 °F (at 5:56 AM)
Average temperature yesterday: 75 °F

Past Weeks' High & Low Weather Summary

 TemperatureHumidityPressure
High96 °F (Jul 16, 4:56 PM)93% (Jul 23, 8:56 AM)30.28 "Hg (Jul 23, 8:56 AM)
Low53 °F (Jul 26, 5:56 AM)21% (Jul 16, 5:56 PM)29.88 "Hg (Jul 16, 5:56 PM)
Average71 °F58%30.04 "Hg
* Reported Jul 16 5:56 AM — Jul 31 5:56 AM, Salem, Weather by CustomWeather, © 2014

Note: Actual official high and low records may vary slightly from our data, if they occured in-between our weather recording intervals... More about our weather records

Advertising

Salem weather history for previous 24 hours

 ConditionsComfort  
Time TempWeatherWind HumidityBarometerVisibility
5:56 AM
Jul 31
63 °FClear.6 mph73%30.03 "Hg10 mi
4:56 AM64 °FClear.6 mph70%30.03 "Hg10 mi
3:56 AM63 °FClear.3 mph75%30.04 "Hg10 mi
2:56 AM63 °FClear.No wind75%30.04 "Hg10 mi
1:56 AM67 °FClear.No wind66%30.04 "Hg10 mi
12:56 AM68 °FClear.6 mph63%30.03 "Hg10 mi
11:56 PM
Jul 30
71 °FClear.9 mph59%30.02 "Hg10 mi
10:56 PM74 °FClear.10 mph56%30.01 "Hg10 mi
9:56 PM78 °FClear.10 mph48%30.01 "Hg10 mi
8:56 PM82 °FSunny.7 mph41%30.01 "Hg10 mi
7:56 PM87 °FSunny.8 mph33%29.98 "Hg10 mi
6:56 PM90 °FSunny.9 mph29%29.98 "Hg10 mi
5:56 PM92 °FSunny.15 mph28%29.97 "Hg10 mi
4:56 PM92 °FSunny.14 mph28%29.98 "Hg10 mi
3:56 PM92 °FSunny.13 mph27%30.00 "Hg10 mi
2:56 PM89 °FSunny.9 mph30%30.02 "Hg10 mi
1:56 PM87 °FSunny.9 mph33%30.05 "Hg10 mi
12:56 PM83 °FSunny.5 mph38%30.06 "Hg10 mi
11:56 AM79 °FSunny.8 mph44%30.08 "Hg10 mi
10:56 AM75 °FSunny.8 mph50%30.09 "Hg10 mi
9:56 AM72 °FSunny.7 mph55%30.10 "Hg10 mi
8:56 AM68 °FSunny.7 mph63%30.10 "Hg10 mi
7:56 AM66 °FSunny.7 mph68%30.10 "Hg10 mi
Weather by CustomWeather, © 2014

See weather overviewHow to use our weather pages